Tracking 29782 objects as of 13-Oct-2024
HD Live streaming from Space Station
objects crossing your sky now

PEGASUS R/B

Track PEGASUS R/B now!
10-day predictions


NORAD ID: 22491
Int'l Code: 1993-009C
Perigee: 680.9 km
Apogee: 744.9 km
Inclination: 25.0 °
Period: 98.9 minutes
Semi major axis: 7083 km
RCS: 0.1679 m2 (medium)
Launch date: February 9, 1993
Source: United States (US)
Launch site: AIR FORCE EASTERN TEST RANGE (AFETR)

Note: This is a ROCKET BODY
Your satellite tracking list
Your tracking list is empty




NASA's NSSDC Master Catalog

Two Line Element Set (TLE):
1 22491U 93009C   24286.48637447  .00004585  00000-0  96217-3 0  9994
2 22491  24.9791 341.3000 0045171 346.5641  13.3667 14.56125146680162
Source of the keplerian elements: AFSPC